[[{"header":{"parameterUnit":"m.s-1","parameterCategory":1,"la1":30.2991,"la2":30.254,"lo1":-89.0895,"lo2":-89.0444,"dy":0.0017,"dx":0.0017,"nx":28,"ny":28,"refTime":"2025-05-29T03:00:00:Z","depth":0,"parameterNumber":2,"parameterNumberName":"U-component_of_WINDS"},"data":[0,0,0,0,0,0,0,0,0,0,0,0,0,0,0,0,0,0,0,0,0,0,0,0,0,0,0,0,0,0,0,0,0,0,0,0,0,0,0,0,0,0,0,0,0,0,0,0,0,0,0,0,0,0,0,0,0,0,3.9322,3.9323,0,3.9405,3.9406,3.9407,3.9324,3.9321,3.9318,3.9315,3.9409,3.9414,3.942,0,0,0,0,0,0,0,0,0,0,0,0,0,3.91,3.9105,3.9322,3.9323,3.9324,3.9405,3.9406,3.9408,3.9325,3.9321,3.9317,3.9313,3.9407,3.9413,3.942,0,0,0,0,0,0,0,0,0,0,0,0,0,3.9192,3.9106,3.9321,3.9292,3.929,3.9405,3.9406,3.9408,3.9326,3.9321,3.9316,3.9311,3.9405,3.9413,3.9421,3.9571,0,0,3.9447,3.945,0,0,0,0,0,0,0,0,3.9187,3.92,3.9295,3.9294,3.9292,3.9349,3.9363,3.9463,3.9327,3.9313,3.9315,3.9309,3.9393,3.9402,3.9429,3.9576,3.958,3.9447,3.9452,3.9456,3.9458,0,0,0,0,0,0,0,3.918,3.9196,3.9355,3.9297,3.9295,3.9278,3.9286,3.9381,3.938,3.9313,3.9308,3.9318,3.9392,3.9421,3.9431,3.9581,3.9447,3.9455,3.946,3.9463,3.9862,3.9867,0,0,0,0,0,0,3.9176,3.9191,3.9352,3.9357,3.9226,3.9286,3.9294,3.9336,3.9379,3.938,3.9322,3.9314,3.941,3.9421,3.9434,3.9617,3.9456,3.9464,3.9469,3.9857,3.9863,3.9869,0,0,0,0,0,0,3.9171,3.9191,3.9349,3.9273,3.9291,3.9295,3.9343,3.934,3.937,3.9385,3.9385,3.9352,3.9406,3.9422,3.9539,3.9619,3.9468,3.9475,3.985,3.9859,3.9866,3.9982,0,0,0,0,0,0,3.9165,3.919,3.9244,3.9274,3.9296,3.9449,3.9347,3.9346,3.9383,3.9373,3.9413,3.9415,3.9403,3.9527,3.9547,3.9628,3.9482,3.9843,3.9854,3.9864,3.9971,3.9993,4.0012,0,0,0,0,0,3.9158,3.9274,3.9247,3.9267,3.9364,3.9454,3.9467,3.9448,3.939,3.9447,3.9458,3.9414,3.9606,3.9539,3.9561,3.9646,3.9838,3.9851,3.9863,3.9962,3.9989,4.0012,0,0,0,0,0,0,3.9255,3.9277,3.9248,3.9377,3.9414,3.944,3.9511,3.9477,3.9533,3.9522,3.9499,3.9509,3.9633,3.9651,3.9576,3.9797,3.9713,3.9731,3.9781,3.9807,3.9827,3.9821,3.9489,0,0,0,0,0,3.9291,3.936,3.9376,3.9489,3.9509,3.9507,3.9546,3.9528,3.9567,3.9583,3.9602,3.9644,3.9714,3.9761,3.9826,3.9973,3.9983,4.0042,4.0063,4.008,4.0096,4.0181,4.0208,3.9911,3.9911,3.991,0,0,3.9367,3.9388,3.9433,3.9509,3.9536,3.9612,3.9521,3.9603,3.9661,3.9596,3.9708,3.9724,3.977,3.9903,3.9963,3.9922,4.0181,4.0096,4.0109,4.0116,4.0196,4.0225,4.025,3.9919,3.9918,3.9916,0,0,3.9544,3.9565,3.9663,3.9692,3.9733,3.9732,3.9756,3.9787,3.9795,3.9906,3.9861,3.9931,4.005,4.0086,4.012,4.0316,4.028,4.0338,4.0447,4.053,4.0553,4.0574,4.0648,4.0675,4.0354,4.0354,4.0354,0,3.9634,3.9743,3.9718,3.9805,3.9843,3.9786,3.9889,3.9919,3.9981,4.001,3.9961,4.0114,4.014,4.0284,4.0332,4.036,4.0391,4.0334,4.0551,4.0572,4.0591,4.0662,4.0689,4.0361,4.0361,4.036,4.0359,0,3.9854,3.9931,4.0006,4.0066,4.0112,4.0206,4.0199,4.0249,4.0229,4.0234,4.0351,4.0381,4.0453,4.0486,4.0467,4.0629,4.0603,4.0553,4.047,4.0627,4.0693,4.072,4.0372,4.0369,4.0367,4.0365,0,0,4.0095,4.0142,4.017,4.0199,4.0242,4.0303,4.0397,4.0466,4.0511,4.0556,4.0638,4.0743,4.0699,4.0737,4.0722,4.0795,4.0954,4.0737,4.0738,4.078,4.1141,4.118,4.1211,4.0929,4.0934,4.0938,4.1138,0,4.0277,4.0437,4.0419,4.0574,4.0648,4.0598,4.068,4.0718,4.0726,4.0793,4.0803,4.0879,4.0812,4.0836,4.0905,4.092,4.1027,4.0905,4.101,4.1014,4.1003,4.1245,4.1286,4.1473,4.1163,4.1168,4.1171,0,4.051,4.0564,4.0726,4.0762,4.0792,4.0866,4.0931,4.0993,4.1037,4.1039,4.1084,4.1058,4.1157,4.1069,4.1209,4.1127,4.1169,4.1183,4.119,4.1202,4.1104,4.1268,4.1532,4.1562,4.1211,4.1208,4.1205,0,4.0675,4.0787,4.09,4.0925,4.0969,4.1023,4.1045,4.1083,4.1128,4.1185,4.1215,4.1283,4.1322,4.1378,4.1374,4.1309,4.1518,4.1428,4.1526,4.1527,4.1574,4.1572,4.1853,4.1596,4.1595,4.1595,4.1594,0,4.0882,4.0985,4.0975,4.1045,4.116,4.114,4.1255,4.1271,4.1306,4.1382,4.1342,4.1414,4.1401,4.1475,4.1472,4.1591,4.1608,4.1615,4.1614,4.1621,4.1621,4.165,4.1639,4.1602,4.16,4.1599,4.1598,0,4.1087,4.1083,4.1204,4.1236,4.1246,4.133,4.1359,4.1428,4.1433,4.1529,4.1551,4.1561,4.1645,4.1645,4.1742,4.1741,4.1888,4.187,4.1873,4.1871,4.197,4.1962,4.2283,4.2326,4.2037,4.204,4.2042,0,4.122,4.1298,4.1339,4.1385,4.141,4.1485,4.153,4.1515,4.1565,4.1623,4.1686,4.1766,4.183,4.1969,4.1988,4.2063,4.2049,4.2156,4.206,4.2067,4.2056,4.2053,4.2063,4.2176,4.2179,4.2182,4.2184,0,4.146,4.1456,4.1521,4.1588,4.1642,4.1694,4.1742,4.1783,4.1774,4.1833,4.1918,4.1968,4.2068,4.215,4.2224,4.225,4.2219,4.2214,4.2241,4.2251,4.2251,4.2257,4.1928,4.2207,4.2205,4.2203,4.2202,4.2201,4.1636,4.1705,4.1745,4.1821,4.1855,4.1902,4.1969,4.1983,4.2053,4.2131,4.2119,4.2216,4.2263,4.2358,4.2391,4.2469,4.2432,4.2471,4.2481,4.2492,4.2505,4.2236,4.2482,4.2482,4.2481,4.248,4.248,0,4.1878,4.1902,4.1971,4.2039,4.2101,4.2062,4.2114,4.2169,4.2254,4.2299,4.2363,4.2464,4.2545,4.257,4.265,4.2708,4.2696,4.273,4.2728,4.2735,4.2531,4.2502,4.2739,4.2739,4.2739,4.2739,4.2739,4.2739,4.2011,4.2126,4.2127,4.2261,4.2285,4.2378,4.2412,4.2457,4.2493,4.2607,4.2673,4.2688,4.2728,4.281,4.2885,4.289,4.2923,4.2965,4.2965,4.2775,4.2749,4.2724,4.2696,4.2971,4.2971,4.3163,4.3165,4.3166]},{"header":{"parameterUnit":"m.s-1","parameterCategory":1,"la1":30.2991,"la2":30.254,"lo1":-89.0895,"lo2":-89.0444,"dy":0.0017,"dx":0.0017,"nx":28,"ny":28,"refTime":"2025-05-29T03:00:00:Z","depth":0,"parameterNumber":3,"parameterNumberName":"V-component_of_WINDS"},"data":[0,0,0,0,0,0,0,0,0,0,0,0,0,0,0,0,0,0,0,0,0,0,0,0,0,0,0,0,0,0,0,0,0,0,0,0,0,0,0,0,0,0,0,0,0,0,0,0,0,0,0,0,0,0,0,0,0,0,0.5689,0.5691,0,0.5883,0.5885,0.5887,0.5853,0.585,0.5846,0.5843,0.6052,0.6061,0.607,0,0,0,0,0,0,0,0,0,0,0,0,0,0.5298,0.5305,0.5689,0.5691,0.5694,0.5883,0.5885,0.5888,0.5854,0.585,0.5845,0.5842,0.6049,0.606,0.607,0,0,0,0,0,0,0,0,0,0,0,0,0,0.5478,0.5308,0.5689,0.5699,0.5702,0.5882,0.5885,0.5889,0.5855,0.585,0.5844,0.584,0.6046,0.6059,0.6072,0.6257,0,0,0.6112,0.6118,0,0,0,0,0,0,0,0,0.5467,0.5492,0.5695,0.5699,0.5702,0.5838,0.5824,0.6012,0.5856,0.5797,0.5843,0.5837,0.5986,0.6004,0.6052,0.6266,0.6275,0.6113,0.6121,0.6127,0.6131,0,0,0,0,0,0,0,0.5455,0.5484,0.5766,0.5698,0.5703,0.5697,0.5717,0.586,0.5919,0.5802,0.58,0.5823,0.5987,0.6039,0.6057,0.6278,0.6113,0.6125,0.6133,0.6138,0.6652,0.6658,0,0,0,0,0,0,0.5438,0.5473,0.576,0.5772,0.5569,0.5708,0.5731,0.58,0.5917,0.5929,0.5827,0.582,0.6019,0.6041,0.6064,0.6286,0.6127,0.6139,0.6147,0.6646,0.6653,0.666,0,0,0,0,0,0,0.543,0.5464,0.5752,0.5622,0.5658,0.5721,0.5799,0.5807,0.5859,0.5936,0.5947,0.5869,0.6016,0.6045,0.6208,0.6293,0.6145,0.6157,0.664,0.6649,0.6657,0.6733,0,0,0,0,0,0,0.5419,0.5461,0.553,0.5624,0.5665,0.5891,0.5804,0.5814,0.588,0.5874,0.5978,0.599,0.6014,0.6188,0.6221,0.6309,0.6167,0.6632,0.6644,0.6654,0.6724,0.6744,0.6761,0,0,0,0,0,0.5405,0.5547,0.5534,0.5569,0.5752,0.5895,0.592,0.5941,0.5887,0.5958,0.6007,0.5987,0.6278,0.6205,0.6241,0.6335,0.6627,0.664,0.6653,0.6715,0.674,0.676,0,0,0,0,0,0,0.5466,0.5559,0.5546,0.5722,0.58,0.5889,0.598,0.5967,0.6065,0.6055,0.6081,0.6105,0.6269,0.6318,0.6235,0.6518,0.6445,0.6466,0.648,0.6504,0.6522,0.6508,0.6178,0,0,0,0,0,0.5499,0.5605,0.5682,0.583,0.5869,0.5918,0.5981,0.599,0.6074,0.6108,0.6169,0.6254,0.6364,0.6437,0.6543,0.673,0.6752,0.6812,0.6831,0.6845,0.6864,0.6965,0.6992,0.6702,0.6702,0.6702,0,0,0.5571,0.5635,0.5701,0.5844,0.5906,0.6016,0.5946,0.6067,0.615,0.6128,0.6283,0.6331,0.6428,0.6602,0.6683,0.6648,0.6948,0.6862,0.6873,0.6884,0.6981,0.7008,0.7032,0.6711,0.6709,0.6708,0,0,0.5757,0.5816,0.5944,0.6007,0.6099,0.613,0.6161,0.6251,0.6281,0.6436,0.6421,0.6522,0.6712,0.678,0.684,0.7049,0.7034,0.7083,0.7181,0.7279,0.7302,0.7322,0.7396,0.7422,0.7101,0.7101,0.7101,0,0.5835,0.5998,0.6013,0.6134,0.6198,0.6178,0.631,0.6371,0.6495,0.6541,0.6499,0.6735,0.6799,0.6988,0.7039,0.7088,0.7125,0.7072,0.7296,0.7317,0.7336,0.7407,0.7435,0.7106,0.7105,0.7105,0.7104,0,0.6089,0.6202,0.6296,0.6411,0.6485,0.6612,0.6648,0.6721,0.6724,0.6759,0.6918,0.6993,0.7112,0.7158,0.7164,0.7349,0.7324,0.729,0.7217,0.7369,0.7436,0.7463,0.7114,0.7112,0.711,0.7109,0,0,0.6322,0.6441,0.6475,0.6526,0.6626,0.6715,0.684,0.6953,0.7016,0.7102,0.7208,0.7367,0.7335,0.7403,0.7416,0.7502,0.7661,0.7457,0.7459,0.7491,0.7868,0.7893,0.7924,0.7651,0.7656,0.766,0.786,0,0.6517,0.6733,0.675,0.6947,0.7051,0.7033,0.7142,0.7216,0.7252,0.7348,0.739,0.7501,0.745,0.7491,0.7575,0.7623,0.7737,0.7609,0.7752,0.7757,0.7728,0.796,0.7987,0.8172,0.7886,0.7891,0.7894,0,0.6774,0.6862,0.7068,0.715,0.7195,0.7292,0.7396,0.7488,0.7571,0.7592,0.7665,0.7665,0.7796,0.7717,0.7897,0.781,0.7869,0.7901,0.7909,0.7924,0.7835,0.798,0.8232,0.8259,0.7936,0.7932,0.7929,0,0.6922,0.7093,0.7237,0.7282,0.7382,0.7451,0.7496,0.7574,0.764,0.7732,0.7775,0.7883,0.7942,0.8026,0.8055,0.7995,0.8234,0.8158,0.8256,0.8255,0.8308,0.8304,0.8572,0.8346,0.8345,0.8345,0.8344,0,0.7138,0.7265,0.7305,0.7394,0.7535,0.7553,0.7694,0.7736,0.7805,0.7903,0.7895,0.7989,0.8021,0.8121,0.8145,0.829,0.8318,0.8339,0.8344,0.8339,0.8336,0.8379,0.8367,0.8352,0.8351,0.8349,0.8348,0,0.7327,0.7359,0.7515,0.7595,0.7619,0.7719,0.7789,0.7876,0.7909,0.8033,0.8064,0.8117,0.8233,0.827,0.8412,0.8428,0.8597,0.8591,0.8567,0.8568,0.8663,0.8654,0.8968,0.901,0.8756,0.8759,0.8761,0,0.7463,0.7559,0.7648,0.7711,0.7758,0.7861,0.7927,0.7948,0.8018,0.8119,0.8194,0.8307,0.8399,0.8586,0.8639,0.8747,0.8743,0.8846,0.876,0.8751,0.8744,0.8738,0.8747,0.8862,0.8865,0.8867,0.8869,0,0.77,0.771,0.7804,0.7903,0.798,0.806,0.8138,0.8191,0.8224,0.8303,0.8418,0.8489,0.8631,0.8744,0.8853,0.8903,0.8893,0.8895,0.8923,0.892,0.8902,0.8912,0.8611,0.8888,0.8886,0.8885,0.8884,0.8883,0.7867,0.795,0.8025,0.8129,0.8188,0.826,0.8344,0.8385,0.8482,0.8596,0.8604,0.8729,0.881,0.8954,0.9008,0.9108,0.9079,0.9121,0.9131,0.9141,0.9148,0.8885,0.9129,0.9128,0.9128,0.9127,0.9127,0,0.8103,0.8149,0.8244,0.8349,0.8432,0.841,0.8493,0.8564,0.8673,0.8748,0.8837,0.897,0.9079,0.9139,0.9248,0.9316,0.9314,0.9344,0.934,0.9351,0.9168,0.9132,0.9344,0.9344,0.9344,0.9344,0.9344,0.9344,0.8235,0.8375,0.8393,0.8562,0.8609,0.8728,0.8778,0.8844,0.8903,0.905,0.9139,0.9176,0.9245,0.9358,0.9457,0.9472,0.9513,0.9546,0.9558,0.9386,0.9364,0.9343,0.9309,0.9555,0.9555,0.9733,0.9734,0.9736]}]]